Regional Weather Roundup
Issued by NWS State College, PA

Home | Current Version | Previous Version | Graphics & Text | Print | Product List | Glossary On
Versions: 1 2 3 4 5 6 7 8 9 10 11 12 13 14 15 16 17 18 19 20 21 22 23 24 25 26 27 28 29 30 31 32 33 34 35 36 37 38 39 40 41 42 43 44 45 46 47 48 49 50
000
ASUS41 KCTP 011303
RWRCTP

REGIONAL WEATHER ROUNDUP
NATIONAL WEATHER SERVICE STATE COLLEGE PA
900 AM EDT SUN MAY 01 2016

Note: "fair" indicates few or no clouds below 12,000 feet with no
significant weather and/or obstructions to visibility.

* = STATION THAT DOES NOT REPORT PRECIPITATION /E.G. RAIN...SNOW...ETC/
    THUNDER OR FOG.

PAZ002>004-007>009-013>016-020>023-029>032-011400-
WESTERN PENNSYLVANIA

CITY           SKY/WX    TMP DP  RH WIND       PRES   REMARKS
ERIE           FOG       50  49  96 CALM      29.92R VSB 1
MEADVILLE        N/A    N/A N/A N/A MISG      29.91R
FRANKLIN*      CLOUDY    55  54  94 SW7       29.95F
NEW CASTLE     CLOUDY    58  58 100 CALM      29.94R FOG
BEAVER COUNTY  NOT AVBL
BUTLER*        CLOUDY    57  55  94 S3        29.97R
PITTSBURGH INT LGT RAIN  62  58  86 SW8       29.94R FOG
PITTSBURGH     CLOUDY    61  57  87 SW10      29.94S
INDIANA*       CLOUDY    57  57 100 S5        29.99R
LATROBE        LGT RAIN  61  61 100 SW16      29.97R
WASHINGTON CO* CLOUDY    61  57  88 SW10G17   29.96S
$$

PAZ004>006-010>012-017>019-024>028-033>037-041-042-045-046-049>053-011400-
CENTRAL PENNSYLVANIA

CITY           SKY/WX    TMP DP  RH WIND       PRES   REMARKS
BRADFORD       LGT RAIN  48  47  96 S8        29.95R FOG
DUBOIS         CLOUDY    51  49  92 CALM      29.95R FOG
CLEARFIELD     LGT RAIN  50  48  93 NE3       29.98S FOG
JOHNSTOWN      CLOUDY    53  48  83 S8        29.98S
ALTOONA        CLOUDY    51  49  92 S8        30.02R
STATE COLLEGE  DRIZZLE   50  48  93 S5        30.02S
WILLIAMSPORT   LGT RAIN  45  41  86 E17       30.07S FOG
SELINSGROVE    LGT RAIN  47  43  86 SE6       30.09S
FT INDIANTOWN  LGT RAIN  44  44 100 E6        30.13F FOG
CAPITAL CITY   LGT RAIN  48  45  89 SE14      30.12S FOG
HARRISBURG     LGT RAIN  47  43  86 SE14      30.12R FOG
YORK           LGT RAIN  48  46  93 SE6       30.11R FOG
$$

PAZ038>040-043-044-047-048-054-055-060>062-067>071-011400-
EASTERN PENNSYLVANIA

CITY           SKY/WX    TMP DP  RH WIND       PRES   REMARKS
SCRANTON       LGT RAIN  42  35  76 VRB5      30.11S
MOUNT POCONO   LGT RAIN  36  34  92 SE13      30.12S
ALLENTOWN      LGT RAIN  44  39  82 SE6       30.17F
QUAKERTOWN*    CLOUDY    43  41  93 S6        30.17F
READING        LGT RAIN  43  39  86 SE5       30.16R
LANCASTER      LGT RAIN  45  44  97 E10       30.14R FOG
COATESVILLE    CLOUDY    43  43 100 SE6       30.16F FOG
POTTSTOWN      RAIN      42  42 100 VRB3      30.18F FOG
BLUE BELL      CLOUDY    43  41  93 E6        30.18S
DOYLESTOWN     LGT RAIN  42  41  96 CALM      30.18F
WILLOW GROVE   NOT AVBL
NORTH PHILA    RAIN      47  43  86 E7        30.21F FOG
PHILADELPHIA   LGT RAIN  47  42  83 E9        30.20S
$$




USA.gov is the U.S. government's official web portal to all federal, state and local government web resources and services.